{"data":{"norad_id":60363,"epoch":"2026-09-21T21:19:31.331712Z","epoch_age_seconds":65660,"freshness":"FRESH","line1":"1 60363U 24138J   26264.88855708  .00000101  00000+0  14142-4 0  9992","line2":"2 60363  53.1595 117.0664 0001261  94.6748 265.4398 15.34391071120689","mean_motion":15.34391071,"eccentricity":0.0001261,"inclination_deg":53.1595,"raan_deg":117.0664,"arg_perigee_deg":94.6748,"mean_anomaly_deg":265.4398,"bstar":1.4142e-5,"rev_number":12068,"period_min":93.84830420458,"perigee_km":461.86714590465,"apogee_km":463.59241250636,"semimajor_km":6840.8667792055,"source":"CELESTRAK","updated_at":"2026-09-22T09:00:49.225229Z"}}